Theta_e
315 315 314 313 312 311 309 307 306 304 302 301 304 301 302 298 297 299 297 297 297 298 297 298 298 298 299 299 300 301 300 300 301 301 301 301 301 301 301 300 300 300
311 310 308 309 307 305 305 306 304 303 300 300 299 298 296 297 295 296 296 296 296 296 296 296 296 296 297 298 299 299 299 300 301 302 300 299 299 300 298 298 298 298
308 308 309 309 307 305 304 304 302 301 300 297 296 296 295 294 295 294 294 294 294 293 294 293 294 293 293 294 296 297 296 296 296 296 297 295 295 296 296 295 293 292
305 306 306 304 304 303 302 301 300 299 298 296 294 293 294 293 293 293 292 292 292 292 292 292 291 291 291 291 292 293 294 294 294 294 294 294 294 295 295 293 293 291
302 302 302 301 300 300 300 300 298 297 295 293 292 292 292 292 291 290 289 288 289 288 288 288 288 288 288 289 289 290 291 292 292 290 290 290 292 292 291 289 288 288
298 298 298 299 298 299 298 296 294 294 293 292 291 290 290 290 289 288 287 287 286 286 286 286 287 286 286 286 286 286 285 285 285 285 286 287 285 284 286 285 285 285
297 297 296 297 296 295 294 292 292 291 291 289 288 288 287 287 287 287 287 286 286 286 286 286 285 285 283 283 284 285 285 285 284 284 284 283 282 283 283 283 284 286
294 294 294 293 292 291 290 289 289 288 287 287 287 284 286 287 286 285 285 286 286 286 285 284 285 285 282 284 285 285 285 283 283 283 283 283 282 283 283 282 283 284
290 289 289 289 289 287 287 287 286 285 285 287 286 285 284 285 285 285 285 285 285 284 284 284 284 284 283 284 282 283 283 282 282 282 282 282 283 283 283 282 283 282
288 287 288 288 287 287 286 285 285 285 285 286 285 285 285 284 284 285 284 284 284 284 284 285 285 284 284 284 283 283 282 282 281 283 283 283 283 283 283 283 282 282
287 287 287 287 286 286 285 285 285 285 285 285 285 285 284 284 283 283 284 284 284 284 284 284 284 284 284 283 283 282 281 280 280 282 282 282 282 282 283 282 282 282
286 286 286 286 286 285 285 285 285 285 284 284 285 284 283 283 283 282 283 283 283 283 284 283 283 283 283 282 282 282 282 282 282 282 282 282 282 282 282 282 282 282
286 286 286 285 285 285 284 284 284 284 284 283 283 283 283 283 282 283 283 283 283 283 283 283 283 283 282 282 282 282 282 282 282 282 282 282 282 282 282 282 281 282
285 285 285 285 284 284 284 284 283 283 283 282 282 282 282 282 282 282 282 282 282 282 282 282 282 282 282 282 282 282 282 282 282 282 281 281 282 281 281 281 281 281
284 284 284 284 284 284 283 283 282 282 282 282 282 282 282 281 282 282 282 281 281 281 281 282 282 282 282 283 283 283 282 282 282 281 281 281 281 281 281 280 280 280
284 284 284 283 283 283 282 282 282 281 281 281 281 281 281 281 281 281 281 281 280 280 280 281 281 282 285 288 288 284 283 282 281 281 280 280 280 279 279 280 279 279
284 283 283 283 282 282 281 281 281 281 281 281 280 280 280 280 280 280 280 280 280 280 279 280 280 282 287 288 288 289 284 282 281 280 280 279 279 278 278 278 278 279
283 282 282 282 281 281 281 281 281 281 280 280 280 279 279 279 279 279 279 279 279 279 279 279 279 285 287 287 287 288 287 281 279 279 279 278 278 278 278 277 277 277
282 282 281 281 281 280 280 280 280 280 279 279 279 279 279 279 278 278 278 278 278 278 278 278 277 285 286 286 286 287 286 282 278 277 277 277 277 276 276 277 277 277
281 281 281 280 280 280 280 280 279 279 278 278 278 278 278 278 278 278 277 277 277 277 277 277 277 283 285 285 285 286 284 281 277 277 276 276 276 276 276 276 276 276
281 281 280 280 279 279 279 279 278 278 278 277 278 277 277 277 277 277 277 276 277 277 277 276 278 283 284 284 285 285 284 281 276 277 276 275 276 276 276 276 276 276
280 280 279 279 279 278 278 278 277 277 277 277 276 276 276 276 276 276 276 276 276 276 276 276 277 281 283 283 284 284 283 276 276 276 275 275 275 275 275 276 276 276
280 279 279 278 278 278 277 277 276 276 276 275 276 276 276 276 276 275 275 275 275 275 275 276 276 279 282 283 283 284 280 274 274 273 274 276 277 277 276 276 276 276
279 279 278 278 277 277 276 276 275 275 275 274 276 275 275 275 275 275 275 275 274 274 276 275 275 277 280 282 282 283 281 275 275 275 275 276 277 277 277 276 276 277
278 278 278 277 276 276 276 275 275 275 274 274 274 274 274 274 274 274 273 273 274 275 276 275 275 275 278 281 281 281 280 277 276 275 275 276 276 275 276 276 275 276
277 277 276 276 275 275 275 275 274 273 273 273 272 273 273 273 273 273 273 274 275 275 274 274 274 273 275 280 280 280 281 278 276 275 275 275 275 275 274 275 275 275
Wind_Speed
7 7 7 6 5 5 8 7 5 7 5 4 6 4 5 3 3 6 5 5 5 5 5 4 4 4 5 5 5 5 5 5 5 4 5 5 4 4 4 3 3 3
6 7 6 6 6 5 4 5 6 7 6 5 5 5 3 5 4 5 5 6 6 5 4 5 5 5 5 5 5 6 5 4 5 4 4 5 4 4 4 4 4 4
7 8 9 9 8 7 8 6 7 6 7 5 5 4 5 4 5 5 6 5 6 5 5 5 5 5 5 5 5 5 4 4 5 4 4 5 4 4 4 4 3 3
6 7 8 8 8 9 7 8 7 7 6 6 4 4 5 4 6 6 5 5 6 6 5 6 5 5 5 5 6 5 5 6 5 4 5 4 4 3 3 4 3 4
8 8 7 8 7 7 7 9 8 6 6 6 5 4 6 6 6 6 6 5 6 6 5 5 5 6 5 6 5 6 5 5 4 4 4 4 3 2 1 2 3 4
6 7 7 8 7 8 8 8 7 7 7 6 6 5 5 5 6 6 6 6 5 5 5 5 6 6 5 5 5 5 3 4 3 3 3 3 3 3 2 4 4 5
8 8 8 8 8 8 9 7 6 6 6 6 5 5 5 6 6 6 6 6 6 6 6 6 6 5 4 4 5 4 3 3 3 4 5 5 4 6 5 5 4 4
8 7 8 8 9 8 8 7 6 7 6 6 7 4 5 6 7 5 5 6 7 6 5 5 4 5 4 3 4 4 4 4 5 6 6 5 4 5 5 4 4 4
8 7 8 8 10 7 8 7 7 6 5 7 7 6 4 5 6 6 6 6 6 5 5 5 5 5 3 6 7 6 7 6 5 5 5 5 6 5 5 5 5 5
8 7 9 8 9 8 9 7 7 6 6 7 6 5 7 5 5 6 6 6 6 5 5 5 5 5 5 6 6 5 5 5 5 4 3 3 4 5 6 5 5 6
8 8 9 9 9 8 9 8 7 7 6 7 7 7 6 6 6 5 6 5 6 6 6 6 5 5 6 5 4 4 5 4 5 4 4 4 4 4 5 5 6 5
8 8 9 9 9 8 9 8 8 7 7 5 7 8 6 5 6 4 5 6 6 5 6 5 5 5 5 5 5 5 4 4 4 4 3 4 4 4 4 4 5 5
8 8 9 9 8 8 7 7 7 7 7 7 5 7 7 6 5 6 4 6 5 5 6 5 5 6 6 6 5 5 5 5 4 4 4 4 4 4 4 4 4 4
7 7 8 8 7 7 7 7 7 7 7 6 6 7 6 5 6 7 5 6 6 6 5 5 6 7 6 5 4 4 4 4 4 4 4 4 4 4 4 4 4 4
7 6 6 7 7 8 8 7 7 7 6 6 6 6 6 5 5 5 6 7 6 6 6 6 7 6 4 4 5 5 4 4 4 4 4 4 4 4 4 4 4 4
7 7 7 7 8 8 8 7 7 7 7 7 7 6 6 5 6 6 6 6 7 7 6 6 6 4 6 10 8 4 4 4 4 4 3 3 4 4 4 4 4 4
8 7 7 8 7 7 7 7 7 7 7 7 7 6 6 6 6 7 7 6 7 7 6 6 4 4 9 10 11 10 5 5 5 4 3 3 3 4 5 6 5 5
8 8 8 8 8 8 8 7 7 7 7 7 7 7 5 5 8 7 6 5 6 6 6 5 4 7 11 10 11 11 9 6 4 3 3 3 3 4 4 4 5 6
8 9 9 8 8 8 8 8 8 8 7 7 7 5 5 7 6 7 6 5 6 6 5 4 4 8 10 11 10 9 10 7 3 3 3 3 3 3 4 4 4 5
8 9 9 8 8 8 8 8 8 8 6 6 6 5 7 6 6 7 6 6 5 5 5 4 4 8 11 10 9 9 10 8 2 3 3 3 3 3 3 4 4 4
8 9 9 9 8 7 7 7 8 7 7 5 6 6 6 6 5 6 5 4 5 4 5 5 5 10 10 10 9 9 10 7 3 3 3 3 3 3 3 3 4 4
9 10 9 9 9 8 8 8 6 7 8 6 6 6 5 5 4 5 5 5 4 4 5 6 5 11 10 10 10 10 10 4 3 4 3 3 3 3 3 4 4 4
9 11 10 10 8 9 9 8 8 7 6 5 8 6 6 5 5 5 4 5 5 4 5 5 5 8 10 10 10 12 6 4 4 3 3 3 4 3 3 4 4 5
9 10 11 10 9 10 9 7 6 4 5 3 8 8 7 5 5 6 5 5 5 5 5 4 4 7 10 10 10 12 8 5 4 3 3 3 5 5 5 4 4 8
8 8 9 10 10 9 9 9 7 7 5 5 6 7 7 5 5 6 5 4 4 5 6 5 3 5 9 10 11 12 8 3 4 3 3 4 5 6 7 5 4 6
6 8 8 9 10 8 7 7 7 7 7 7 6 6 7 6 5 5 6 5 4 5 4 3 3 3 6 11 11 11 11 5 4 5 5 6 6 6 6 6 6 6
Wind_Direction
167 167 164 161 153 150 148 141 135 123 121 124 121 131 111 116 106 94 89 81 78 75 63 60 57 57 51 54 55 65 61 66 66 61 66 69 62 56 60 43 32 34
157 147 135 123 114 110 109 118 124 121 120 113 117 118 106 107 76 94 96 88 75 72 69 66 58 59 59 63 63 71 65 56 56 30 51 57 46 43 45 20 26 12
134 135 139 140 137 128 121 110 109 109 112 112 107 104 107 100 102 77 80 88 84 74 66 65 65 58 66 71 72 70 68 64 57 38 56 51 34 47 34 19 17 359
115 124 126 121 124 125 123 114 106 106 108 104 105 118 112 100 92 89 84 84 91 80 71 65 66 63 68 71 78 70 69 65 52 50 60 56 41 27 36 27 3 351
122 114 110 111 111 114 115 112 114 113 112 120 117 108 103 101 98 97 93 84 88 81 75 73 66 63 61 64 66 78 66 71 62 58 56 58 33 27 353 20 358 346
92 104 111 117 121 119 112 114 122 123 126 113 111 102 100 105 106 106 102 96 87 93 83 73 66 49 55 65 66 67 63 58 33 63 66 46 352 342 347 7 8 350
116 114 111 111 107 106 110 112 116 117 109 115 107 99 113 105 103 101 100 102 95 80 78 75 74 66 45 72 77 80 71 81 54 38 40 360 2 344 348 360 351 339
114 112 115 112 110 109 109 114 117 111 117 109 104 102 104 108 105 108 102 96 91 88 87 86 88 85 83 89 83 72 56 71 52 41 38 15 1 349 338 345 337 335
119 118 116 114 112 115 115 117 111 108 115 113 111 107 89 102 112 103 98 95 92 93 95 91 89 88 80 74 72 68 52 33 51 54 39 10 357 343 338 334 345 343
120 124 119 122 119 126 119 115 115 115 116 109 112 110 106 91 89 97 95 96 98 90 82 79 70 65 64 63 68 73 71 45 40 35 25 10 352 339 336 341 339 338
128 129 126 125 124 123 121 123 125 122 117 120 118 107 104 100 85 86 97 92 89 89 84 74 72 69 64 57 58 70 83 71 38 23 16 4 345 328 325 332 334 335
133 131 130 129 127 127 131 131 127 121 120 112 117 113 101 94 105 94 98 95 90 88 85 81 75 70 65 57 47 42 44 42 34 22 13 360 344 332 331 331 333 328
138 136 133 133 134 134 129 123 119 121 118 116 109 109 110 109 102 98 82 90 88 82 77 80 73 62 53 43 38 36 34 27 15 11 5 359 339 332 329 331 330 327
135 134 133 132 129 125 120 117 117 113 110 109 108 102 103 105 106 99 92 84 81 81 76 75 67 56 45 39 38 36 31 22 22 8 356 346 337 330 330 330 328 322
134 130 127 128 125 122 120 119 114 113 110 107 102 101 96 97 97 96 96 84 74 74 69 61 63 50 40 38 34 26 31 22 11 2 353 343 334 330 329 330 328 322
137 135 134 129 127 125 122 118 116 115 111 104 98 99 98 99 92 84 81 84 81 70 65 62 54 45 29 36 36 35 24 25 18 6 354 337 329 327 327 334 330 326
139 137 134 130 127 120 120 119 117 115 108 103 98 94 95 93 92 82 76 74 77 77 70 63 52 33 34 39 33 30 40 39 21 358 349 339 335 337 334 331 328 323
142 138 133 132 129 126 124 121 117 111 104 103 101 95 93 95 82 84 81 77 79 78 73 63 48 27 42 39 35 33 50 49 20 359 345 336 334 336 328 325 320 321
146 142 137 135 133 130 129 124 117 108 106 104 100 108 101 85 89 85 79 74 76 77 72 58 50 27 43 39 35 38 43 51 17 356 344 330 331 331 324 320 317 317
148 143 137 134 133 131 128 122 113 110 109 109 112 101 94 94 85 85 84 78 77 82 78 67 49 31 38 37 35 36 40 37 19 356 342 336 334 327 321 318 320 325
148 142 136 136 134 130 122 115 115 116 112 113 108 106 104 99 96 91 83 84 76 76 77 60 39 33 35 34 29 32 37 38 21 6 352 338 325 312 311 316 318 321
149 144 140 138 136 130 123 121 120 126 126 127 111 101 93 97 79 82 83 76 72 70 73 62 34 27 29 29 27 29 43 41 32 12 353 326 311 308 309 317 316 326
155 147 145 142 140 132 130 132 132 128 124 129 111 107 105 95 98 86 79 77 72 70 69 64 38 18 24 27 28 26 51 39 34 15 332 312 333 328 327 326 322 336
156 152 146 145 142 140 138 132 124 114 122 136 122 123 107 106 106 91 74 72 70 66 67 64 40 11 24 28 28 25 41 44 17 3 331 338 349 348 343 326 323 337
150 150 145 143 140 141 141 138 138 132 124 108 104 105 107 105 95 96 92 76 71 70 65 71 42 11 14 29 28 23 24 38 12 346 343 359 351 346 341 335 330 334
148 145 144 142 138 134 132 129 130 124 122 115 104 104 108 102 98 102 102 89 76 64 54 69 54 12 6 28 25 20 15 22 6 353 352 355 350 338 337 334 334 330